San Antonio Stinson, TX

7:37 PM CDT on March 29, 2017 (GMT -0500)
Stinson Municipal

Weather History for KSSF - March, 2012

Change the Weather History Date:

Sunday, March 4, 2012

  Actual Average Record
Temperature  
Mean Temperature 55 °F -  
Max Temperature 73 °F 66 °F 87 °F (2013)
Min Temperature 37 °F 48 °F 21 °F (2002)
Degree Days  
Heating Degree Days 10    
Growing Degree Days 5 (Base 50)    
Moisture  
Dew Point 33 °F    
Average Humidity 48    
Maximum Humidity 86    
Minimum Humidity 18    
Precipitation  
Precipitation 0.00 in - - ()
Sea Level Pressure  
Sea Level Pressure 30.22 in    
Wind  
Wind Speed 5 mph (South)    
Max Wind Speed 14 mph    
Max Gust Speed 16 mph    
Visibility 10 miles    
Events      
Averages and records for this station are not official NWS values.
T = Trace of Precipitation, MM = Missing Value Source: NWS Daily Summary

Daily Weather History Graph

Daily Weather History Graph

Search for Another Location

Airport or City:

Trip Planner

Search our weather history database for the weather conditions in past years. The results will help you decide how hot, cold, wet, or windy it might be!

Date:

Astronomy

Mar. 04, 2012 Rise Set
Actual Time 6:55 AM CST 6:35 PM CST
Civil Twilight 6:31 AM CST 6:59 PM CST
Nautical Twilight 6:04 AM CST 7:27 PM CST
Astronomical Twilight 5:36 AM CST 7:54 PM CST
Moon 3:03 PM CST (3/4) 4:01 AM CST (3/4)
Length of Visible Light 12h 27m
Length of Day
11h 40m
Waxing Gibbous, 84% of the Moon is Illuminated
Mar 4
Waxing Gibbous
Mar 8
Full
Mar 14
Last Quarter
Mar 22
New
Mar 30
First Quarter

Hourly Weather History & Observations

Time (CST) Temp. Windchill Dew Point Humidity Pressure Visibility Wind Dir Wind Speed Gust Speed Precip Events Conditions
12:53 AM 39.9 °F 37.8 °F 35.1 °F 83% 30.22 in 10.0 mi West 3.5 mph - N/A   Clear
1:53 AM 42.1 °F 40.2 °F 36.0 °F 79% 30.22 in 9.0 mi WSW 3.5 mph - N/A   Clear
2:53 AM 44.1 °F 42.5 °F 34.0 °F 68% 30.22 in 10.0 mi West 3.5 mph - N/A   Clear
3:53 AM 43.0 °F - 35.1 °F 74% 30.20 in 10.0 mi Calm Calm - N/A   Clear
4:53 AM 41.0 °F 38.0 °F 35.1 °F 79% 30.19 in 10.0 mi NE 4.6 mph - N/A   Clear
5:53 AM 39.9 °F 37.8 °F 33.1 °F 77% 30.23 in 10.0 mi NW 3.5 mph - N/A   Clear
6:53 AM 37.0 °F 34.5 °F 33.1 °F 86% 30.26 in 10.0 mi West 3.5 mph - N/A   Clear
7:53 AM 42.1 °F - 37.0 °F 82% 30.28 in 10.0 mi Calm Calm - N/A   Clear
8:53 AM 50.0 °F - 37.0 °F 61% 30.29 in 10.0 mi Calm Calm - N/A   Clear
9:53 AM 60.1 °F - 34.0 °F 38% 30.29 in 10.0 mi West 4.6 mph - N/A   Clear
10:53 AM 63.0 °F - 35.1 °F 35% 30.29 in 10.0 mi SW 10.4 mph - N/A   Clear
11:53 AM 66.0 °F - 32.0 °F 28% 30.27 in 10.0 mi South 12.7 mph 16.1 mph N/A   Clear
12:53 PM 69.1 °F - 34.0 °F 27% 30.24 in 10.0 mi South 11.5 mph - N/A   Clear
1:53 PM 70.0 °F - 32.0 °F 25% 30.20 in 10.0 mi SSE 13.8 mph - N/A   Clear
2:53 PM 71.1 °F - 30.0 °F 22% 30.17 in 10.0 mi SSW 11.5 mph - N/A   Clear
3:53 PM 72.0 °F - 27.0 °F 19% 30.15 in 10.0 mi South 13.8 mph - N/A   Clear
4:53 PM 73.0 °F - 27.0 °F 18% 30.14 in 10.0 mi South 10.4 mph - N/A   Clear
5:53 PM 71.1 °F - 30.0 °F 22% 30.13 in 10.0 mi South 5.8 mph - N/A   Clear
6:53 PM 66.9 °F - 30.0 °F 25% 30.14 in 10.0 mi SE 4.6 mph - N/A   Clear
7:53 PM 61.0 °F - 33.1 °F 35% 30.17 in 10.0 mi SSE 5.8 mph - N/A   Clear
8:53 PM 59.0 °F - 30.9 °F 35% 30.19 in 10.0 mi SE 4.6 mph - N/A   Clear
9:53 PM 57.0 °F - 35.1 °F 44% 30.22 in 10.0 mi SSE 8.1 mph - N/A   Clear
10:53 PM 55.0 °F - 36.0 °F 49% 30.24 in 10.0 mi SSE 6.9 mph - N/A   Clear
11:53 PM 53.1 °F - 34.0 °F 48% 30.24 in 10.0 mi SSE 4.6 mph - N/A   Clear